Terminal Aerodrome Forecast
Issued by NWS

Home | Current Version | Previous Version | Text Only | Print | Product List | Glossary On
Versions: 1 2 3 4 5 6 7 8 9 10 11 12 13 14 15 16 17 18
000
FTAK31 PAJN 301750 RRA
TAFAJN
TAF
PAJN 301750Z 3018/3118 08010KT P6SM -SHRA SCT020 OVC035
      TEMPO 3018/3020 5SM -SHRA BR SCT005 OVC025
     FM302000 12010KT P6SM -SHRA SCT030 OVC050
     FM310300 10012KT P6SM -SHRA BKN025 OVC040
     FM310900 10008KT P6SM -SHRA SCT030 OVC050=

USA.gov is the U.S. government's official web portal to all federal, state and local government web resources and services.